EST,Max TemperatureF,Mean TemperatureF,Min TemperatureF,Max Dew PointF,MeanDew PointF,Min DewpointF,Max Humidity, Mean Humidity, Min Humidity, Max Sea Level PressureIn, Mean Sea Level PressureIn, Min Sea Level PressureIn, Max VisibilityMiles, Mean VisibilityMiles, Min VisibilityMiles, Max Wind SpeedMPH, Mean Wind SpeedMPH, Max Gust SpeedMPH,PrecipitationIn, CloudCover, Events, WindDirDegrees
2011-12-1,34,25,15,23,19,12,96,79,61,30.28,30.18,29.93,10,10,8,10,2,17,0.00,3,,239
2011-12-2,34,28,22,31,27,18,100,91,81,30.54,30.26,30.14,10,6,0,13,4,17,0.05,7,Fog-Snow,250
2011-12-3,36,26,16,23,18,13,100,76,52,30.63,30.55,30.42,10,10,10,9,2,10,0.00,2,,225
2011-12-4,49,32,15,33,26,13,92,69,45,30.43,30.29,30.19,10,10,10,21,9,30,0.00,2,,226
2011-12-5,46,44,41,41,38,33,100,83,65,30.25,30.16,30.08,10,7,0,14,5,18,0.21,8,Fog-Rain,229
2011-12-6,42,38,33,41,36,32,100,96,92,30.09,30.00,29.91,10,5,1,10,4,14,0.29,8,Rain,38
2011-12-7,35,30,25,34,30,21,100,92,84,29.95,29.80,29.66,10,4,0,9,1,15,0.03,8,Fog-Snow,335
2011-12-8,31,28,24,25,20,15,88,71,53,30.12,29.85,29.65,10,7,1,17,9,29,0.03,6,Snow,249
2011-12-9,33,31,28,27,24,21,75,72,69,30.20,30.12,30.03,10,7,1,22,11,28,T,8,Snow,218
2011-12-10,32,21,9,27,17,8,88,71,54,30.40,30.19,30.06,10,6,1,17,6,25,0.02,5,Snow,261
2011-12-11,30,17,4,19,13,2,92,73,53,30.53,30.47,30.39,10,10,10,20,9,24,0.00,2,,219
2011-12-12,41,26,11,14,10,6,88,56,23,30.51,30.44,30.39,10,10,10,13,3,15,0.00,0,,230
2011-12-13,34,22,10,32,25,7,100,88,75,30.43,30.35,30.27,10,6,1,9,2,12,T,7,Snow,226
2011-12-14,37,33,28,34,32,28,100,91,82,30.37,30.27,30.01,10,4,0,16,2,21,0.01,7,Fog-Snow,206
2011-12-15,46,42,37,45,40,33,93,88,82,30.00,29.67,29.53,10,5,1,24,14,31,0.54,8,Rain-Snow,223
2011-12-16,43,35,27,37,29,24,96,86,76,30.07,29.88,29.53,10,5,0,22,8,39,0.11,8,Fog-Rain-Snow,268
2011-12-17,27,12,-3,23,10,-7,92,77,61,30.25,30.09,29.94,10,6,1,9,3,14,0.01,6,Snow,335
2011-12-18,19,5,-9,9,-2,-13,91,70,49,30.29,30.24,30.12,10,10,10,7,1,9,0.00,1,,220
2011-12-19,37,25,12,34,26,8,100,84,67,30.10,29.83,29.69,10,7,2,22,11,30,0.05,8,Rain-Snow,242
2011-12-20,29,16,3,25,11,0,92,77,62,30.20,30.10,29.85,10,8,1,12,4,18,T,5,Snow,284
2011-12-21,45,26,7,43,32,9,100,90,80,30.05,29.74,29.53,10,5,1,12,4,15,0.21,8,Rain-Snow,238
2011-12-22,45,37,28,43,31,28,100,88,75,30.07,29.90,29.60,10,6,0,14,5,23,0.04,6,Fog-Rain,249
2011-12-23,32,21,9,30,24,5,100,88,76,30.27,29.98,29.86,10,4,1,12,4,20,0.12,8,Snow,260
2011-12-24,16,7,-3,7,2,-6,95,78,61,30.45,30.37,30.22,10,10,8,9,1,10,0.00,3,,25
2011-12-25,30,14,-2,28,20,-4,92,84,75,30.33,29.92,29.74,10,5,1,17,5,21,0.06,8,Snow,226
2011-12-26,30,25,20,28,21,16,88,78,68,30.19,30.02,29.75,10,8,1,21,8,24,0.02,7,Snow,256
2011-12-27,43,34,25,39,28,19,92,73,54,30.04,29.60,29.13,10,9,3,17,7,30,0.20,5,Rain-Snow,199
2011-12-28,39,20,0,37,17,-6,92,81,70,29.81,29.38,29.14,10,4,1,20,11,31,0.02,8,Snow,257
2011-12-29,15,5,-5,-1,-5,-8,87,64,40,30.00,29.91,29.79,10,10,9,14,5,20,0.00,1,,228
2011-12-30,26,15,3,23,13,1,88,82,76,30.03,29.95,29.86,10,8,2,9,4,12,0.02,8,Snow,48
2011-12-31,38,30,22,36,32,22,100,92,84,29.99,29.84,29.76,10,4,0,7,2,9,0.15,7,Fog-Rain,245